Lid_Strength_Index
3 3 3 3 3 3 3 3 3 3 3 3 3 3 3 3 3 5 8 5 4 0 0 5 6 6 6 10 11 13 17 19 17 15 14 11 12 9 8 9 8 8 9 6 3
3 3 3 3 3 3 3 3 3 3 3 3 2 3 3 3 6 7 3 1 1 1 6 7 8 8 12 12 12 15 19 17 13 13 13 12 12 10 10 10 9 8 10 9 8
3 3 3 3 3 3 3 3 3 3 2 2 2 3 3 3 8 9 2 1 1 2 5 6 7 9 13 13 13 15 16 14 12 12 12 12 12 11 11 12 10 9 12 11 8
3 3 3 3 3 3 3 3 3 3 3 3 3 3 3 6 13 7 1 1 1 2 5 7 10 13 14 14 12 15 12 12 12 11 13 13 11 11 11 11 9 8 8 10 11
4 4 4 4 3 3 3 3 3 3 3 3 3 3 5 7 7 4 0 0 2 4 6 8 10 12 14 12 12 14 12 10 10 10 11 10 11 11 11 9 8 8 7 8 11
3 4 4 4 4 4 4 4 4 4 3 2 2 3 6 11 4 2 2 4 4 6 7 8 10 9 12 12 12 10 10 9 8 9 9 9 9 10 9 7 8 9 9 9 8
3 3 4 4 4 4 4 4 4 4 3 2 3 4 7 9 4 3 3 5 5 5 7 6 7 8 9 10 8 8 10 8 8 8 9 8 9 9 6 7 8 9 9 9 8
3 4 4 4 4 4 4 4 4 4 3 2 3 5 9 3 4 5 4 5 5 5 5 5 5 7 9 8 7 9 11 14 10 8 7 9 12 8 6 7 8 8 9 9 9
4 4 4 4 4 4 4 4 4 3 3 2 5 6 7 2 5 4 5 5 5 5 5 3 5 7 7 10 12 12 14 13 11 8 8 10 11 8 7 7 7 7 9 9 9
4 4 4 4 4 4 4 4 4 4 3 2 3 7 6 6 4 4 4 4 5 6 6 7 8 10 11 12 16 14 14 12 12 9 8 10 10 8 8 8 8 7 7 9 9
3 4 5 4 4 4 6 8 10 10 5 8 8 6 6 4 3 5 4 5 5 7 10 8 11 13 11 10 9 10 11 12 10 8 9 9 9 8 8 9 10 9 8 9 9
4 4 4 4 4 4 7 8 7 8 10 6 6 6 5 4 7 6 4 7 7 10 9 10 12 9 8 8 9 10 12 12 10 8 9 10 10 8 9 9 9 8 8 8 9
4 4 4 4 4 6 7 6 5 6 11 7 5 5 6 6 7 7 5 6 8 10 9 12 10 7 8 9 10 10 11 11 11 9 9 10 11 10 8 8 8 7 7 7 7
4 4 4 5 6 6 7 6 4 5 11 8 6 7 6 7 7 4 3 5 8 10 9 10 8 8 9 10 10 12 9 9 10 12 15 10 18 12 10 9 8 7 7 7 7
3 3 4 4 8 7 5 6 4 5 18 8 9 6 6 7 6 5 3 5 9 9 10 11 10 10 11 10 9 12 9 10 11 13 13 13 16 13 10 10 9 7 7 7 7
3 3 4 5 6 5 3 6 5 12 16 10 9 9 9 7 6 5 5 5 5 9 9 9 7 8 9 8 9 8 11 12 12 14 19 14 15 14 12 10 8 7 7 6 6
3 3 5 4 7 5 5 6 12 16 9 12 11 10 10 10 9 7 8 9 12 15 14 11 10 8 8 11 9 10 14 19 20 21 20 13 15 14 10 8 8 8 7 6 6
3 4 4 3 5 5 5 9 16 11 11 9 9 10 11 10 10 9 9 11 10 11 15 16 16 10 8 10 12 13 14 18 23 22 19 14 19 15 9 7 7 6 6 6 7
4 5 4 3 3 5 7 14 14 10 9 9 10 12 12 10 10 10 10 11 10 10 15 16 15 8 8 8 9 14 16 12 16 16 19 17 14 10 9 9 7 7 7 7 7
6 6 4 3 4 5 9 12 10 7 7 8 13 11 14 12 12 12 11 9 10 9 8 12 17 10 9 9 9 12 10 17 16 22 22 18 16 15 12 11 9 8 8 8 7
7 6 5 3 4 8 12 11 8 6 6 8 11 12 12 12 12 13 11 9 8 9 9 11 14 13 10 12 14 13 15 14 14 16 21 21 18 11 11 10 9 8 8 8 8
8 9 4 3 8 10 11 8 7 7 6 8 9 10 12 12 13 12 11 9 7 8 13 11 13 16 14 10 9 11 12 13 18 19 17 18 17 9 10 9 9 8 7 8 7
9 8 4 4 12 11 9 8 7 8 7 8 9 9 10 12 14 12 10 7 7 9 12 10 14 18 16 14 11 13 12 12 13 14 18 20 17 9 8 9 7 8 7 6 7
8 10 7 7 7 10 11 10 10 6 7 7 8 9 11 11 11 13 11 8 7 8 7 8 13 15 18 15 13 14 13 12 14 17 17 16 15 11 10 10 9 8 7 7 6
7 9 8 11 9 9 9 9 10 11 7 7 10 9 10 12 12 12 10 9 8 8 9 10 15 14 13 12 12 13 13 13 15 14 17 15 15 12 10 10 10 9 8 7 7
8 8 6 8 8 9 9 10 10 9 9 10 10 9 10 12 12 12 10 10 11 9 10 10 14 13 15 12 12 14 13 13 13 14 14 14 14 11 10 10 10 10 9 9 7
4 5 6 9 9 10 10 9 10 8 8 7 8 9 10 9 8 8 7 7 9 10 11 12 13 15 16 13 13 17 15 16 15 13 14 17 14 11 12 12 12 11 10 9 8